Total_Precipitation_Accumulation
0.00 0.01 0.04 0.06 0.08 0.12 0.10 0.07 0.11 0.11 0.12 0.58 1.08 0.57 0.20 0.11 0.09 0.11 0.19 0.49 0.48 0.35 0.48 0.42 0.69 0.83 0.60 0.45 0.42 0.54 0.48 0.41 0.75 0.56 0.56 0.62 0.15 0.01 0.00 0.00 0.00 0.00 0.00
0.00 0.00 0.00 0.03 0.04 0.04 0.04 0.03 0.02 0.02 0.04 0.19 0.33 0.10 0.09 0.12 0.10 0.06 0.15 0.33 0.47 0.49 0.58 0.64 0.62 0.83 0.77 0.63 0.42 0.47 0.65 0.59 1.01 0.76 0.62 1.13 0.60 0.18 0.11 0.06 0.00 0.00 0.00
0.00 0.00 0.00 0.00 0.00 0.00 0.01 0.03 0.02 0.02 0.03 0.11 0.11 0.10 0.06 0.08 0.09 0.11 0.19 0.26 0.30 0.40 0.52 0.48 0.62 0.78 0.83 0.73 0.62 0.63 0.44 0.63 1.19 1.63 0.85 0.93 0.62 0.40 0.32 0.24 0.10 0.05 0.02
0.00 0.00 0.00 0.00 0.00 0.00 0.00 0.01 0.00 0.01 0.02 0.03 0.06 0.06 0.06 0.04 0.04 0.05 0.10 0.11 0.19 0.34 0.62 0.68 0.51 0.46 0.60 0.65 0.48 0.57 1.70 1.57 1.57 1.34 0.94 0.70 0.58 0.65 0.52 0.42 0.43 0.44 0.41
0.00 0.00 0.00 0.00 0.00 0.00 0.00 0.00 0.00 0.00 0.01 0.03 0.04 0.04 0.04 0.03 0.02 0.03 0.05 0.04 0.02 0.19 0.41 0.79 0.89 0.72 0.69 0.61 0.51 0.44 0.83 1.41 1.09 0.76 0.57 0.59 0.56 0.53 0.56 0.58 0.77 0.95 0.56
0.00 0.00 0.00 0.00 0.00 0.00 0.00 0.00 0.01 0.02 0.02 0.03 0.04 0.06 0.06 0.01 0.00 0.00 0.04 0.05 0.04 0.01 0.05 0.17 0.35 0.46 0.45 0.48 0.52 0.43 0.37 0.49 0.55 0.76 0.79 0.97 1.10 0.80 0.64 0.60 0.67 0.72 0.46
0.00 0.00 0.00 0.00 0.00 0.00 0.00 0.01 0.04 0.05 0.07 0.06 0.06 0.08 0.04 0.00 0.00 0.00 0.00 0.07 0.09 0.04 0.00 0.01 0.05 0.09 0.15 0.18 0.26 0.38 0.42 0.46 0.46 0.56 0.65 0.75 1.05 1.17 0.70 0.53 0.54 0.69 0.63
0.00 0.00 0.00 0.00 0.00 0.00 0.01 0.02 0.03 0.09 0.12 0.14 0.08 0.04 0.01 0.00 0.00 0.00 0.00 0.03 0.11 0.08 0.05 0.01 0.00 0.00 0.00 0.00 0.02 0.04 0.05 0.11 0.20 0.21 0.37 0.57 0.76 0.74 1.00 1.10 0.93 0.73 0.69
0.00 0.00 0.00 0.00 0.01 0.03 0.03 0.03 0.06 0.07 0.04 0.07 0.09 0.08 0.10 0.09 0.09 0.06 0.01 0.01 0.11 0.16 0.07 0.02 0.00 0.00 0.04 0.02 0.00 0.00 0.00 0.00 0.00 0.05 0.17 0.32 0.57 0.67 0.77 0.79 1.02 0.90 0.67
0.00 0.00 0.00 0.00 0.04 0.12 0.20 0.17 0.11 0.08 0.10 0.21 0.25 0.33 0.34 0.22 0.25 0.16 0.08 0.03 0.04 0.19 0.26 0.10 0.10 0.07 0.05 0.02 0.00 0.00 0.00 0.00 0.00 0.00 0.01 0.02 0.04 0.11 0.26 0.37 0.69 0.94 1.14
0.00 0.00 0.00 0.00 0.00 0.02 0.07 0.08 0.17 0.34 0.48 0.49 0.50 0.56 0.49 0.35 0.33 0.28 0.24 0.16 0.14 0.35 0.21 0.15 0.14 0.15 0.12 0.12 0.06 0.00 0.01 0.01 0.00 0.00 0.00 0.00 0.00 0.00 0.00 0.01 0.05 0.17 0.29
0.10 0.07 0.02 0.02 0.04 0.10 0.35 0.73 0.90 0.91 0.82 0.69 0.63 0.60 0.47 0.53 0.55 0.59 0.53 0.41 0.35 0.13 0.08 0.24 0.23 0.27 0.27 0.29 0.16 0.13 0.09 0.03 0.00 0.00 0.00 0.00 0.00 0.00 0.00 0.00 0.00 0.01 0.03
0.19 0.29 0.30 0.30 0.43 0.67 1.10 1.29 1.54 1.58 1.18 0.86 0.84 0.74 0.85 0.75 0.65 0.65 0.41 0.23 0.10 0.05 0.05 0.16 0.18 0.37 0.55 0.35 0.36 0.30 0.25 0.14 0.05 0.01 0.00 0.00 0.00 0.00 0.00 0.00 0.00 0.00 0.00
0.21 0.33 0.54 0.80 1.55 2.23 2.36 2.74 2.58 1.83 1.06 0.74 0.92 0.87 0.93 0.75 0.66 0.85 0.94 0.44 0.25 0.15 0.11 0.08 0.06 0.10 0.16 0.21 0.29 0.26 0.23 0.22 0.11 0.03 0.04 0.02 0.00 0.00 0.00 0.00 0.00 0.00 0.00
0.41 0.42 0.42 0.51 0.74 0.89 1.28 1.42 1.12 0.65 0.50 0.48 0.33 0.28 0.22 0.22 0.26 0.23 0.31 0.32 0.25 0.21 0.16 0.07 0.04 0.03 0.03 0.04 0.12 0.17 0.15 0.09 0.05 0.04 0.02 0.01 0.00 0.00 0.00 0.00 0.00 0.00 0.00
1.03 1.01 0.78 0.51 0.35 0.27 0.19 0.23 0.21 0.17 0.16 0.14 0.14 0.11 0.15 0.22 0.31 0.38 0.24 0.22 0.21 0.16 0.06 0.04 0.04 0.03 0.02 0.02 0.01 0.03 0.03 0.03 0.05 0.06 0.03 0.02 0.01 0.00 0.01 0.02 0.01 0.00 0.00
0.46 0.54 0.46 0.22 0.17 0.12 0.08 0.11 0.07 0.10 0.11 0.09 0.09 0.14 0.13 0.09 0.17 0.27 0.23 0.22 0.24 0.15 0.08 0.09 0.05 0.04 0.05 0.07 0.10 0.12 0.12 0.12 0.13 0.11 0.08 0.05 0.04 0.05 0.04 0.02 0.01 0.01 0.00
0.06 0.11 0.08 0.08 0.06 0.05 0.04 0.06 0.04 0.03 0.07 0.07 0.11 0.21 0.08 0.05 0.05 0.07 0.07 0.04 0.03 0.04 0.05 0.06 0.05 0.05 0.08 0.09 0.15 0.21 0.25 0.29 0.29 0.26 0.23 0.21 0.21 0.21 0.21 0.15 0.08 0.03 0.03
0.05 0.07 0.03 0.03 0.02 0.02 0.04 0.06 0.06 0.05 0.04 0.02 0.02 0.02 0.04 0.09 0.20 0.22 0.15 0.06 0.04 0.01 0.01 0.01 0.02 0.01 0.02 0.03 0.04 0.02 0.02 0.01 0.01 0.01 0.02 0.01 0.01 0.01 0.01 0.01 0.02 0.02 0.03
0.03 0.01 0.01 0.01 0.02 0.02 0.02 0.02 0.02 0.01 0.01 0.00 0.00 0.00 0.01 0.12 0.39 0.41 0.32 0.19 0.20 0.19 0.15 0.08 0.06 0.04 0.04 0.06 0.06 0.08 0.09 0.07 0.06 0.06 0.06 0.04 0.04 0.04 0.06 0.07 0.05 0.02 0.01
0.02 0.01 0.01 0.01 0.01 0.01 0.00 0.01 0.01 0.00 0.00 0.01 0.00 0.01 0.09 0.24 0.42 0.51 0.60 0.61 0.57 0.47 0.45 0.48 0.55 0.45 0.28 0.16 0.09 0.07 0.08 0.09 0.12 0.15 0.18 0.17 0.13 0.12 0.12 0.13 0.10 0.08 0.07
0.01 0.01 0.01 0.03 0.03 0.03 0.01 0.01 0.01 0.01 0.02 0.01 0.00 0.02 0.12 0.14 0.20 0.25 0.31 0.40 0.41 0.34 0.27 0.23 0.22 0.24 0.26 0.22 0.17 0.14 0.12 0.10 0.07 0.05 0.06 0.07 0.08 0.12 0.10 0.05 0.02 0.01 0.00
0.00 0.02 0.04 0.07 0.10 0.10 0.07 0.09 0.06 0.06 0.08 0.04 0.02 0.00 0.01 0.03 0.11 0.17 0.26 0.33 0.35 0.36 0.33 0.27 0.25 0.24 0.22 0.20 0.19 0.18 0.18 0.15 0.12 0.12 0.11 0.11 0.12 0.15 0.19 0.16 0.09 0.05 0.05
0.00 0.00 0.00 0.01 0.01 0.02 0.03 0.05 0.04 0.05 0.06 0.06 0.11 0.07 0.03 0.01 0.00 0.00 0.01 0.01 0.02 0.04 0.07 0.10 0.12 0.13 0.13 0.12 0.11 0.11 0.10 0.10 0.09 0.10 0.11 0.11 0.11 0.11 0.11 0.10 0.11 0.12 0.10
0.00 0.00 0.00 0.00 0.01 0.01 0.00 0.02 0.03 0.05 0.03 0.03 0.09 0.16 0.18 0.08 0.01 0.01 0.01 0.00 0.00 0.00 0.00 0.00 0.00 0.00 0.00 0.00 0.00 0.00 0.00 0.00 0.00 0.00 0.00 0.00 0.00 0.01 0.01 0.01 0.02 0.04 0.06
0.00 0.01 0.00 0.00 0.00 0.00 0.00 0.01 0.01 0.02 0.03 0.05 0.09 0.10 0.13 0.13 0.20 0.18 0.19 0.13 0.03 0.01 0.01 0.01 0.01 0.01 0.02 0.03 0.03 0.04 0.03 0.02 0.01 0.01 0.00 0.00 0.00 0.00 0.01 0.01 0.01 0.03 0.03